Weather History for Alexandria Esle, LA

Change the Weather History Date:

Saturday, December 14, 2013

  Actual Average Record
Temperature  
Mean Temperature 54 °F -  
Max Temperature 62 °F 61 °F 78 °F (1971)
Min Temperature 44 °F 41 °F 21 °F (1966)
Degree Days  
Heating Degree Days 12    
Growing Degree Days 4 (Base 50)    
Moisture  
Dew Point 51 °F    
Average Humidity 86    
Maximum Humidity 100    
Minimum Humidity 71    
Precipitation  
Precipitation 0.13 in - - ()
Sea Level Pressure  
Sea Level Pressure 29.94 in    
Wind  
Wind Speed 5 mph (WNW)    
Max Wind Speed 10 mph    
Max Gust Speed 22 mph    
Visibility 7 miles    
Events Fog , Rain    
Averages and records for this station are not official NWS values.
T = Trace of Precipitation, MM = Missing Value Source: NWS Daily Summary

Daily Weather History Graph

Daily Weather History Graph

Search for Another Location

Airport:

Trip Planner

Search our weather history database for the weather conditions in past years. The results will help you decide how hot, cold, wet, or windy it might be!

Date:

Astronomy

Dec. 14, 2013 Rise Set
Actual Time 7:00 AM CST 5:07 PM CST
Civil Twilight 6:33 AM CST 5:34 PM CST
Nautical Twilight 6:03 AM CST 6:04 PM CST
Astronomical Twilight 5:33 AM CST 6:34 PM CST
Moon 3:24 PM CST (12/14) 4:28 AM CST (12/14)
Length of Visible Light 11h 00m
Length of Day
10h 07m
Waxing Gibbous, 94% of the Moon is Illuminated
Dec 14
Waxing Gibbous
Dec 17
Full
Dec 25
Last Quarter
Jan 1
New
Jan 7
First Quarter

Hourly Weather History & Observations

Time (CST) Temp. Windchill Dew Point Humidity Pressure Visibility Wind Dir Wind Speed Gust Speed Precip Events Conditions
12:17 AM 57.2 °F - 55.4 °F 94% 29.87 in 10.0 mi SSW 8.1 mph - 0.00 in   Overcast
12:29 AM 57.2 °F - 55.4 °F 94% 29.86 in 10.0 mi SSW 6.9 mph - 0.00 in   Overcast
12:53 AM 59.0 °F - 55.9 °F 90% 29.83 in 10.0 mi South 5.8 mph - 0.01 in Rain Light Rain
1:05 AM 60.8 °F - 57.2 °F 88% 29.84 in 10.0 mi South 5.8 mph - 0.00 in   Overcast
1:44 AM 60.8 °F - 57.2 °F 88% 29.84 in 2.0 mi SSW 8.1 mph - 0.11 in Rain Light Rain
1:47 AM 60.8 °F - 57.2 °F 88% 29.84 in 3.0 mi SSW 6.9 mph - 0.11 in Rain Light Rain
1:53 AM 60.1 °F - 57.9 °F 93% 29.84 in 9.0 mi SW 6.9 mph - 0.11 in Rain Light Rain
2:43 AM 60.8 °F - 57.2 °F 88% 29.85 in 10.0 mi WSW 4.6 mph - 0.01 in   Overcast
2:53 AM 60.1 °F - 57.9 °F 93% 29.85 in 9.0 mi WSW 3.5 mph - 0.01 in   Overcast
3:18 AM 60.8 °F - 57.2 °F 88% 29.84 in 7.0 mi Calm Calm - N/A   Overcast
3:42 AM 60.8 °F - 57.2 °F 88% 29.84 in 9.0 mi WSW 6.9 mph - N/A   Overcast
3:53 AM 62.1 °F - 59.0 °F 90% 29.83 in 9.0 mi WSW 6.9 mph - N/A   Overcast
4:08 AM 60.8 °F - 57.2 °F 88% 29.84 in 9.0 mi West 4.6 mph - N/A   Overcast
4:19 AM 60.8 °F - 57.2 °F 88% 29.84 in 8.0 mi West 4.6 mph - N/A   Overcast
4:33 AM 60.8 °F - 59.0 °F 94% 29.84 in 8.0 mi West 3.5 mph - N/A   Overcast
4:53 AM 60.1 °F - 57.0 °F 90% 29.84 in 10.0 mi West 4.6 mph - N/A   Mostly Cloudy
5:00 AM 60.8 °F - 57.2 °F 88% 29.84 in 9.0 mi West 4.6 mph - N/A   Mostly Cloudy
5:18 AM 59.0 °F - 57.2 °F 94% 29.84 in 9.0 mi West 4.6 mph - N/A   Mostly Cloudy
5:53 AM 57.9 °F - 55.0 °F 90% 29.85 in 9.0 mi West 3.5 mph - N/A   Mostly Cloudy
6:11 AM 55.4 °F - 53.6 °F 94% 29.85 in 5.0 mi West 3.5 mph - N/A   Scattered Clouds
6:16 AM 55.4 °F - 53.6 °F 94% 29.85 in 1.8 mi Calm Calm - N/A   Partly Cloudy
6:18 AM 53.6 °F - 53.6 °F 100% 29.86 in 0.8 mi Calm Calm - N/A   Scattered Clouds
6:25 AM 53.6 °F - 51.8 °F 94% 29.86 in 0.2 mi West 3.5 mph - N/A Fog Fog
6:53 AM 52.0 °F - 50.0 °F 93% 29.86 in 0.2 mi Calm Calm - N/A Fog Fog
7:01 AM 51.8 °F - 50.0 °F 94% 29.87 in 0.2 mi Calm Calm - N/A Fog Fog
7:12 AM 51.8 °F - 48.2 °F 88% 29.87 in 0.2 mi Calm Calm - N/A Fog Fog
7:20 AM 51.8 °F - 48.2 °F 88% 29.88 in 0.2 mi Calm Calm - N/A Fog Fog
7:44 AM 51.8 °F - 50.0 °F 94% 29.89 in 0.2 mi Calm Calm - N/A Fog Fog
7:53 AM 53.1 °F - 51.1 °F 93% 29.89 in 0.2 mi Calm Calm - N/A Fog Fog
8:06 AM 53.6 °F - 51.8 °F 94% 29.91 in 0.2 mi Calm Calm - N/A Fog Fog
8:19 AM 55.4 °F - 53.6 °F 94% 29.91 in 1.0 mi Calm Calm - N/A   Overcast
8:24 AM 55.4 °F - 53.6 °F 94% 29.91 in 2.0 mi Calm Calm - N/A   Overcast
8:40 AM 55.4 °F - 53.6 °F 94% 29.91 in 3.0 mi Calm Calm - N/A   Overcast
8:53 AM 57.9 °F - 55.9 °F 93% 29.92 in 8.0 mi NW 3.5 mph - N/A   Overcast
9:04 AM 57.2 °F - 55.4 °F 94% 29.92 in 9.0 mi West 6.9 mph - N/A   Overcast
9:46 AM 57.2 °F - 53.6 °F 88% 29.93 in 10.0 mi WNW 5.8 mph - N/A   Mostly Cloudy
9:53 AM 60.1 °F - 54.0 °F 80% 29.92 in 10.0 mi North 8.1 mph - N/A   Mostly Cloudy
10:03 AM 60.8 °F - 53.6 °F 77% 29.93 in 10.0 mi WNW 6.9 mph - N/A   Mostly Cloudy
10:28 AM 60.8 °F - 53.6 °F 77% 29.93 in 10.0 mi Variable 6.9 mph - N/A   Overcast
10:36 AM 60.8 °F - 53.6 °F 77% 29.93 in 10.0 mi NNW 5.8 mph - N/A   Mostly Cloudy
10:43 AM 60.8 °F - 53.6 °F 77% 29.93 in 10.0 mi NW 5.8 mph - N/A   Mostly Cloudy
10:53 AM 60.1 °F - 52.0 °F 75% 29.93 in 10.0 mi Variable 5.8 mph - N/A   Mostly Cloudy
11:53 AM 60.1 °F - 51.1 °F 72% 29.93 in 10.0 mi NW 8.1 mph - N/A   Mostly Cloudy
12:40 PM 55.4 °F - 48.2 °F 77% 29.94 in 10.0 mi NW 8.1 mph - N/A   Overcast
12:53 PM 54.0 °F - 48.9 °F 83% 29.94 in 10.0 mi Variable 6.9 mph - N/A   Overcast
1:53 PM 53.1 °F - 46.9 °F 80% 29.95 in 10.0 mi Variable 6.9 mph - N/A   Overcast
2:42 PM 53.6 °F - 46.4 °F 77% 29.98 in 10.0 mi WNW 5.8 mph - N/A   Mostly Cloudy
2:53 PM 53.1 °F - 45.0 °F 74% 29.96 in 10.0 mi Variable 4.6 mph - N/A   Mostly Cloudy
3:42 PM 51.8 °F - 44.6 °F 76% 30.00 in 10.0 mi NNW 5.8 mph - N/A   Overcast
3:53 PM 51.1 °F - 45.0 °F 80% 29.99 in 8.0 mi Variable 5.8 mph 18.4 mph N/A   Overcast
4:37 PM 50.0 °F - 44.6 °F 82% 30.02 in 10.0 mi North 8.1 mph 17.3 mph N/A   Overcast
4:48 PM 50.0 °F - 44.6 °F 82% 30.04 in 9.0 mi Calm Calm - N/A   Overcast
4:53 PM 50.0 °F - 44.1 °F 80% 30.03 in 9.0 mi NNW 9.2 mph - N/A   Overcast
5:42 PM 48.2 °F - 44.6 °F 87% 30.07 in 4.0 mi Variable 5.8 mph - 0.00 in Rain Light Rain
5:53 PM 48.0 °F - 44.1 °F 86% 30.08 in 7.0 mi NNW 4.6 mph - 0.00 in   Overcast
6:08 PM 48.2 °F - 44.6 °F 87% 30.08 in 10.0 mi Variable 6.9 mph - 0.00 in   Overcast
6:25 PM 48.2 °F - 44.6 °F 87% 30.09 in 10.0 mi Variable 5.8 mph - 0.00 in   Overcast
6:53 PM 48.0 °F - 43.0 °F 83% 30.09 in 10.0 mi Variable 5.8 mph - 0.00 in   Overcast
7:53 PM 48.0 °F - 42.1 °F 80% 30.11 in 10.0 mi NNW 3.5 mph - N/A   Overcast
8:41 PM 48.2 °F - 41.0 °F 76% 30.13 in 10.0 mi NW 5.8 mph - N/A   Overcast
8:53 PM 48.0 °F - 41.0 °F 77% 30.13 in 10.0 mi NNW 4.6 mph - N/A   Overcast
9:14 PM 48.2 °F - 41.0 °F 76% 30.15 in 10.0 mi NNW 9.2 mph - N/A   Overcast
9:53 PM 46.0 °F 43.1 °F 39.0 °F 76% 30.17 in 10.0 mi NNW 5.8 mph - N/A   Overcast
10:53 PM 45.0 °F 40.6 °F 37.9 °F 76% 30.19 in 10.0 mi North 8.1 mph - N/A   Overcast
11:53 PM 44.1 °F 38.6 °F 35.1 °F 71% 30.21 in 10.0 mi NNW 10.4 mph 21.9 mph N/A   Overcast